Location: Clinton NY
(43.0598°N, 75.3602°W)
Time: 09:34:13
(UTC-04:00)

Daily predictions for brighter satellites

Satellite Brightness Start Highest point End
(mag) Time Altitude Azimuth Time Altitude Azimuth Time Altitude Azimuth
Cosmos 1328 Rocket 3.7 21:15:30 10° N 21:19:58 84° W 21:24:24 10° S
USA 229 DEB 3.8 21:13:31 10° SSW 21:20:19 63° ESE 21:27:13 10° NE
Cosmos 2322 4.2 21:14:47 10° NNW 21:20:20 48° ENE 21:25:50 10° SE
USA 229 3.8 21:13:38 10° SSW 21:20:25 62° ESE 21:27:19 10° NE
Terra 4.1 21:20:00 10° ENE 21:21:06 11° ENE 21:22:13 10° NE
Cosmos 1441 Rocket 3.1 21:19:10 10° S 21:22:56 77° E 21:26:42 10° NNE
S3M 4.1 21:18:10 10° N 21:24:17 81° W 21:30:25 10° S
Cosmos 2322 Rocket 2.7 21:19:12 10° NNW 21:24:43 59° WSW 21:30:12 10° S
Cosmos 1726 4.3 21:23:32 10° NE 21:25:21 13° ENE 21:27:10 10° E
Cosmos 773 Rocket 4.0 21:21:39 10° NNW 21:26:51 74° ENE 21:32:04 10° SSE
CZ-4 SHROUD 3.7 21:25:09 10° SSE 21:28:08 43° ENE 21:31:09 10° N
Cosmos 2228 Rocket 4.1 21:26:50 10° NNW 21:31:08 49° W 21:35:29 10° SSW
SL-12 R/B (AUX MOTOR) 4.0 21:30:01 10° WSW 21:32:05 76° NNW 21:33:30 10° ENE
SL-16 R/B 2.9 21:29:13 10° NW 21:34:43 52° WSW 21:40:11 10° S
Cosmos 2360 Rocket 2.4 21:29:24 10° NNW 21:35:02 64° ENE 21:40:35 10° SE
Cosmos 1743 Rocket 4.3 21:31:01 10° SSW 21:35:24 57° W 21:39:50 10° N
Cosmos 968 Rocket 4.2 21:35:06 10° SW 21:40:11 58° WNW 21:45:22 10° NNE
SL-23 DEB 4.3 21:34:56 10° WNW 21:40:33 68° NNE 21:43:59 11° ESE
ATLAS CENTAUR R/B 3.7 21:37:22 10° WNW 21:40:34 19° WSW 21:43:36 10° SSW
Cosmos 1500 Rocket 3.8 21:37:25 10° SSW 21:41:46 72° W 21:46:12 10° N
Cosmos 1908 3.2 21:37:59 10° N 21:41:55 87° E 21:45:49 10° S
deb Chang Zheng 4 4.2 21:42:47 10° N 21:47:04 60° WNW 21:51:20 10° SSW
MetOp-B 4.2 21:45:41 10° SSE 21:51:02 78° ENE 21:56:25 10° N
Cosmos 1939 Rocket 3.9 21:49:01 10° S 21:52:47 43° W 21:56:33 10° NNW
DELTA 2 R/B(2) 4.4 21:54:54 10° SW 21:56:28 25° SSE 21:57:18 20° SE
Delta 2 Rocket 4.2 21:54:10 10° SW 21:56:51 21° S 21:58:00 17° SE
Meteor 1-4 Rocket 4.3 21:54:57 10° NNE 21:57:49 20° ENE 21:59:48 14° ESE
Cosmos 1674 3.0 21:55:35 10° SSW 21:59:24 69° W 22:03:15 10° N
Envisat 3.6 21:54:45 10° S 21:59:43 55° W 22:04:44 10° NNW
SPOT 5 3.1 21:55:42 10° S 22:00:12 67° WSW 22:04:58 10° NNW
Cosmos 2227 Rocket 3.9 22:00:43 12° ESE 22:02:15 14° E 22:04:55 10° ENE
ATLAS 2AS CENTAUR R/B 4.3 22:00:49 13° SE 22:03:23 15° ESE 22:07:33 10° ENE
SL-08 RB Rocket 4.1 22:02:37 16° SE 22:05:55 49° ENE 22:10:16 10° N
Cosmos 1833 4.4 22:00:56 10° SSW 22:06:38 78° WNW 22:12:21 10° NNE
Cosmos 1437 Rocket 4.2 22:05:05 10° NNW 22:08:33 33° W 22:12:01 10° SSW
Cosmos 1300 3.0 22:04:48 10° N 22:08:34 51° E 22:11:00 20° SSE
Cosmos 2112 Rocket 4.0 22:03:19 10° NNW 22:08:36 89° ENE 22:12:50 16° SSE
Cosmos 2333 Rocket 3.7 22:04:00 10° N 22:08:46 26° NE 22:13:11 11° ESE
USA 245 2.1 22:10:34 24° SSE 22:12:00 83° ENE 22:14:23 10° NNW
SL-16 R/B 4.5 22:10:03 10° NNE 22:12:35 13° NE 22:15:07 10° ENE
Cosmos 2298 Rocket 4.4 22:07:58 12° S 22:12:38 43° ESE 22:17:39 10° NNE
Cosmos 1437 3.1 22:09:23 10° SSW 22:12:39 68° W 22:15:57 10° N
DELTA 2 R/B (1) 4.0 22:07:24 10° W 22:12:41 46° SSW 22:16:24 19° SE
CARTOSAT-1 4.5 22:17:10 19° ESE 22:19:35 34° ENE 22:23:31 10° N
Cosmos 2315 Rocket 4.0 22:13:45 10° N 22:19:59 83° W 22:25:34 13° S
COSMOS 2428 2.8 22:15:08 10° NNW 22:20:50 73° ENE 22:24:46 21° SE
Cosmos 1937 Rocket 4.3 22:18:23 19° SSE 22:21:06 31° E 22:25:38 10° NE
ATLAS 3B R/B 4.4 22:15:55 10° NNW 22:21:44 25° NNE 22:27:14 10° E
Sich 1 3.3 22:20:01 19° SSE 22:22:57 52° E 22:27:15 10° NNE
Cosmos 1633 Rocket 3.3 22:21:04 20° SSE 22:23:50 50° E 22:28:04 10° NNE
Cosmos 2151 3.7 22:19:57 10° SSW 22:24:03 53° W 22:28:11 10° N
YAOGAN 6 3.4 22:23:27 15° S 22:26:19 47° W 22:29:50 10° NNW
NOSS 3-1 (C) 3.4 22:21:56 10° SSW 22:27:41 62° ESE 22:34:04 10° NE
Cosmos 2297 Rocket 3.8 22:28:39 16° ESE 22:29:34 16° E 22:32:55 10° ENE
CZ-4C R/B 3.1 22:29:16 29° SSE 22:30:52 64° ENE 22:34:19 10° N
Cosmos 1455 3.7 22:28:18 10° NNE 22:31:20 22° ENE 22:32:31 19° E
H-2A R/B 2.4 22:29:35 22° SE 22:32:55 57° ENE 22:38:15 10° N
Cosmos 2219 Rocket 2.6 22:31:57 10° NNW 22:37:25 50° ENE 22:40:42 23° SE
Cosmos 1805 Rocket 3.9 22:33:35 11° SSW 22:37:51 67° W 22:42:17 10° N
Lacrosse 4 Rocket 4.0 22:37:52 10° NNE 22:39:44 12° NE 22:41:37 10° ENE
ARGOS 3.4 22:37:03 18° S 22:41:08 65° WSW 22:46:31 10° NNW
Landsat 7 3.8 22:39:24 25° SSE 22:42:11 84° ENE 22:46:58 10° NNW
Cosmos 2237 4.3 22:36:44 10° NNW 22:42:28 73° WSW 22:46:02 24° SSE
SPOT 1/Viking Rocket 4.3 22:41:06 15° S 22:45:10 48° W 22:50:10 10° NNW
Nadezhda 1 Rocket 4.1 22:43:16 10° N 22:49:16 58° E 22:52:38 27° SSE
Cosmos 2058 3.9 22:46:04 10° SSW 22:49:59 44° WNW 22:53:56 10° N
Cosmos 292 Rocket 3.7 22:46:41 10° NNW 22:51:28 74° ENE 22:53:38 32° SSE
Cosmos 1980 4.2 22:47:15 10° NNW 22:52:44 49° ENE 22:55:44 25° ESE
Spot 4 4.0 22:52:29 30° SE 22:54:45 62° ENE 22:59:33 10° N
Cosmos 1707 Rocket 4.4 22:51:09 10° NNW 22:55:18 45° W 22:58:04 19° SSW
Cosmos 2219 3.8 22:51:18 10° SW 22:56:57 58° WNW 23:02:39 10° NNE
Terra 1.8 22:55:46 31° SSE 22:58:03 85° ENE 23:02:50 10° NNW
SAR-Lupe-2 3.5 22:57:19 45° SSE 22:58:17 73° ENE 23:01:53 10° N
COSMOS 2455 4.2 22:53:12 10° NNW 22:58:26 30° NE 23:02:41 14° E
SL-14 R/B 4.0 22:56:57 17° SSW 22:59:45 50° WNW 23:03:39 10° N
Cosmos 1666 Rocket 4.2 22:56:36 15° SSW 23:00:04 52° W 23:04:25 10° N
Cosmos 1703 3.1 22:58:43 34° S 23:00:19 88° E 23:04:15 10° N
Cosmos 1898 Rocket 3.5 22:56:17 14° SSW 23:00:43 84° WNW 23:05:58 10° NNE
Cosmos 1726 3.1 22:57:23 10° NNW 23:00:59 43° W 23:02:46 25° SSW
Cosmos 1745 Rocket 3.9 22:57:28 22° S 23:01:38 80° E 23:07:50 10° N
Cosmos 1271 Rocket 2.8 22:58:05 10° NNW 23:01:54 73° W 23:03:14 38° S
Cosmos 2150 Rocket 4.2 22:57:11 12° SSW 23:02:10 81° WNW 23:07:41 10° NNE
Cosmos 2333 4.4 22:56:58 10° NNW 23:02:40 68° WSW 23:05:40 29° S
SL-08 R/B 4.5 22:58:31 19° S 23:03:07 86° W 23:09:27 10° N
Spot 2 4.4 23:00:02 10° NNE 23:05:10 67° ESE 23:07:27 32° S
Cosmos 2237 Rocket 2.5 23:00:19 10° NNW 23:05:57 57° ENE 23:08:42 29° SE
Cosmos 1346 3.4 23:07:04 50° ENE 23:07:04 50° ENE 23:09:47 10° NNE
Cosmos 2082 4.0 23:07:20 32° SSE 23:09:37 49° ESE 23:15:06 10° NE
DMSP B5D2-2 4.0 23:06:55 10° NNE 23:12:11 89° ESE 23:15:09 27° SSW
Cosmos 1470 Rocket 3.4 23:11:47 38° S 23:13:23 86° ESE 23:17:44 10° N
Cosmos 220 Rocket 3.9 23:12:13 32° SSW 23:14:14 89° ESE 23:18:42 10° NNE
Cosmos 1933 Rocket 3.5 23:13:06 38° S 23:14:49 86° E 23:19:19 10° N
IGS 5A 3.6 23:14:41 39° S 23:16:06 66° W 23:20:16 10° NNW
Iridium 2 4.1 23:14:54 34° SSW 23:16:21 58° W 23:20:10 10° N
SeaSat 1 3.3 23:15:33 25° ESE 23:17:50 41° NE 23:22:28 10° NNW
Cosmos 2360 Rocket 4.2 23:14:39 10° WNW 23:18:28 19° W 23:22:17 10° SW
Cosmos 1933 4.2 23:18:12 10° N 23:21:58 35° ENE 23:22:33 33° E
NOSS 3-1 (A) 3.7 23:24:40 10° SW 23:30:35 68° NW 23:37:11 10° NNE
NOSS 0 Rocket 4.0 23:24:35 10° NNW 23:30:44 73° WSW 23:33:20 36° S
Cosmos 1386 Rocket 4.4 23:27:31 29° S 23:30:46 83° W 23:36:49 10° N
Cosmos 2181 Rocket 4.3 23:24:47 10° N 23:31:04 57° E 23:33:42 34° SE
Meteor 1-4 Rocket 4.3 23:29:50 10° NW 23:33:00 26° W 23:34:10 22° WSW
Cosmos 192 4.2 23:33:46 10° NNW 23:38:43 86° ENE 23:40:02 49° SSE
Cosmos 1626 2.6 23:40:11 46° SW 23:40:57 56° W 23:44:40 10° N
Cosmos 2227 Rocket 2.2 23:42:29 29° SSW 23:45:28 84° WNW 23:51:11 10° NNE
Cosmos 468 4.5 23:41:01 10° NNW 23:46:23 81° ENE 23:47:58 47° SSE
ERBS 3.6 23:51:23 33° ENE 23:51:23 33° ENE 23:53:27 10° NE
IKONOS-2 4.4 23:50:00 63° SSE 23:50:39 82° ENE 23:54:58 10° N
Cosmos 2333 Rocket 2.6 23:47:46 10° NNW 23:53:23 54° WSW 23:55:11 39° SSW
Cosmos 1862 Rocket 4.5 23:49:38 10° NNW 23:53:42 39° W 23:54:46 33° SW
